SNUSat 2
1 43782U 18099AA  24195.11367706  .00008821  00000-0  61818-3 0  9999
2 43782  97.5110 251.4218 0014360 209.4186 150.6234 15.05360935306474
SnugLite
1 43784U 18099AC  24195.57580203  .00010064  00000-0  68306-3 0  9991
2 43784  97.4929 251.1978 0004207 202.9642 157.1398 15.06590838306614
ITASat 1
1 43786U 18099AE  24195.59753233  .00006386  00000-0  45730-3 0  9998
2 43786  97.5076 252.1210 0015685 260.5557  99.3897 15.04644427306542
EAGLET 1
1 43790U 18099AJ  24195.60381101  .00004755  00000-0  35612-3 0  9992
2 43790  97.5267 252.6175 0012087 235.0255 124.9836 15.03123387306240
ESEO
1 43792U 18099AL  24195.82667844  .00003589  00000-0  29442-3 0  9997
2 43792  97.5134 249.5226 0010408 222.4162 137.6258 14.99806112306190
CSIM
1 43793U 18099AM  24195.61089449  .00022588  00000-0  11519-2 0  9999
2 43793  97.5276 260.1132 0012252 213.6856 146.3600 15.16690813306786
JO-97
1 43803U 18099AX  24195.71466249  .00011363  00000-0  74274-3 0  9996
2 43803  97.5182 253.8015 0009594 203.8026 156.2760 15.07923715306695
Suomi 100
1 43804U 18099AY  24195.58069575  .00009870  00000-0  65956-3 0  9990
2 43804  97.5253 253.4630 0015468 206.4751 153.5688 15.07085138306658
ISAT
1 43879U 18111D   24195.30544620  .00011874  00000-0  70979-3 0  9994
2 43879  97.6159 100.8920 0010748 268.7806  91.2192 15.11179045303360
UWE-4
1 43880U 18111E   24195.24231503  .00010023  00000-0  61641-3 0  9993
2 43880  97.6081 100.7824 0014327 280.1692  79.7921 15.10155385303367
Sparrow
1 43881U 18111F   24195.46628010  .00013151  00000-0  77458-3 0  9999
2 43881  97.6254 103.0038 0008212 319.8818  40.1805 15.11711510303451
Prox-1
1 44339U 19036A   24195.29527594  .00011493  00000-0  19470-2 0  9997
2 44339  24.0004  57.3884 0008824 292.9839  66.9724 14.67428974269085
SONATE
1 44400U 19038Q   24195.73891534  .00025502  00000-0  74012-3 0  9995
2 44400  97.7127 191.0422 0015594  21.4035 338.7856 15.35378665278157
Taurus 1
1 44530U 19059C   24195.84055112  .00008542  00000-0  19587-2 0  9998
2 44530  98.5778 316.7236 0010139 335.5146  24.5568 14.55770783255640
Duchifat 3
1 44854U 19089C   24195.84969485  .00017649  00000-0  86756-3 0  9998
2 44854  36.9557 247.0218 0005684 302.8997  57.1203 15.17340994252254
TO-108
1 44881U 19093C   24195.81285540  .00001786  00000-0  22146-3 0  9991
2 44881  97.8277 272.0828 0013256 232.1488 127.8527 14.83843038246995
FloripaSat 1
1 44885U 19093G   24195.80173722  .00006976  00000-0  71712-3 0  9991
2 44885  97.8403 278.1787 0011775 221.7701 138.2619 14.90602795247335
RS-44
1 44909U 19096E   24195.53694553  .00000016  00000-0  23087-4 0  9993
2 44909  82.5208  87.2697 0217469 349.9264   9.7511 12.79731323212341
BY70-2
1 45857U 20042B   24195.84654678  .00234488  00000-0  55231-2 0  9993
2 45857  97.9036 291.3391 0007046 191.9647 168.1432 15.40990376218647
UPMSat 2
1 46276U 20061E   24195.76981364  .00018187  00000-0  53814-3 0  9998
2 46276  97.2955 261.7233 0002104  81.7677 278.3805 15.34950007214252
AmicalSat
1 46287U 20061R   24195.71556323  .00037541  00000-0  96308-3 0  9998
2 46287  97.3471 263.0204 0003373 132.1050 228.0483 15.39241038213644
SALSAT
1 46495U 20068K   24195.45739701  .00006941  00000-0  39030-3 0  9999
2 46495  97.8169 155.4188 0012608 217.0884 142.9476 15.13550683208289
UVSQ-SAT
1 47438U 21006AB  24195.12531874  .00066099  00000-0  11204-2 0  9997
2 47438  97.3233 256.0183 0006939 127.3339 232.8546 15.51276072192755
YUSAT 1
1 47439U 21006AC  24195.76325317  .00507976  00000-0  18766-2 0  9995
2 47439  97.3111 262.6256 0005212 208.3936 151.7052 15.86938229193244
SOMP 2b
1 47445U 21006AJ  24195.82903035  .00059985  00000-0  11531-2 0  9993
2 47445  97.3200 254.8840 0007649 128.7100 231.4835 15.47703430192779
IDEASSat
1 47458U 21006AX  24195.33752925  .00044749  00000-0  96216-3 0  9999
2 47458  97.3312 254.8374 0007872 131.2561 228.9367 15.44496238192624
CubeSX-Sirius-HSE
1 47951U 21022V   24195.85823339  .00025518  00000-0  96539-3 0  9991
2 47951  97.4569  94.1712 0015526  51.8679 308.3957 15.26819311182640
CubeSX-HSE
1 47952U 21022W   24195.80958412  .00026641  00000-0  10040-2 0  9998
2 47952  97.4569  94.2193 0015412  51.2521 309.0093 15.26939719182643
KSU-Cubesat
1 47954U 21022Y   24195.67889042  .00030050  00000-0  10264-2 0  9994
2 47954  97.4577  95.5354 0014149  48.3933 311.8517 15.30158033182433
GRBAlpha
1 47959U 21022AD  24195.83775675  .00024373  00000-0  91634-3 0  9995
2 47959  97.4569  94.4020 0015274  51.4690 308.7915 15.27039518181474
Orbicraft-Zorkiy
1 47960U 21022AE  24195.86153874  .00031430  00000-0  11061-2 0  9998
2 47960  97.4615  95.8031 0014294  49.9359 310.3132 15.29173945182230
STECCO
1 47962U 21022AG  24195.83540434  .00246592  00000-0  20025-2 0  9996
2 47962  97.4523 106.9498 0005266  91.3683 268.8182 15.69956056182295
MO-110
1 47964U 21022AJ  24195.27613986  .00531982  00000-0  21828-2 0  9991
2 47964  97.4504 108.6714 0006571 128.6503 231.5356 15.84678285182349
TUBIN
1 48900U 21059X   24195.86011313  .00018785  00000-0  62658-3 0  9991
2 48900  97.6488 341.2939 0006251   0.6787 359.4461 15.31107315169003
LEDSAT
1 49069U 21073D   24195.75577821  .00019594  00000-0  76523-3 0  9998
2 49069  97.4358 266.7243 0019229 186.0669 174.0339 15.25755761160508
CUTE
1 49263U 21088D   24195.19685418  .00019687  00000-0  89383-3 0  9991
2 49263  97.4951 261.0340 0012677 356.3125   3.8015 15.20755367153596
TeikyoSat 4
1 49396U 21102B   24195.71651386  .00002957  00000-0  21485-3 0  9991
2 49396  97.4587 239.7779 0013510 177.0653 183.0655 15.04536166146743
Z-Sat
1 49399U 21102E   24195.87068789  .00006671  00000-0  42692-3 0  9990
2 49399  97.4297 241.5424 0020971 162.2163 197.9805 15.08716197147013
KOSEN 1
1 49402U 21102H   24195.85673637  .00008708  00000-0  50980-3 0  9999
2 49402  97.4222 243.0661 0019986 145.7747 214.4776 15.11888104147175
HO-113
1 50466U 21131B   24195.88313170  .00001112  00000-0  36911-3 0  9999
2 50466  98.5284 280.8289 0005048  58.3536 301.8144 14.39716864133842
Tevel-3
1 50988U 22002E   24195.75843423  .00389450  00000-0  18435-2 0  9995
2 50988  97.3689 273.2507 0007653 237.2456 122.8075 15.81955299139237
Tevel-8
1 50989U 22002F   24195.80528521  .00409837  00000-0  19687-2 0  9993
2 50989  97.3713 273.3900 0007677 237.0598 122.9932 15.81584886139238
Tevel-5
1 50998U 22002Q   24195.77567559  .01329537  10643-2  19146-2 0  9998
2 50998  97.3656 275.2926 0013749 255.6720 104.3035 16.05457608139374
Tevel-6
1 50999U 22002R   24195.86272718  .01253876  89120-3  20148-2 0  9992
2 50999  97.3571 275.2997 0012163 253.3081 106.6865 16.03634685139380
Tevel-1
1 51013U 22002AF  24195.86029169  .00412525  00000-0  19912-2 0  9991
2 51013  97.3682 273.1908 0007825 234.7821 125.2715 15.81471584139242
IRIS-A
1 51044U 22002BN  24195.76596706  .00024425  00000-0  77329-3 0  9995
2 51044  97.3828 262.1999 0004245 296.8452  63.2356 15.32736413138497
Tevel-7
1 51062U 22002CG  24195.84780616  .00394957  00000-0  18525-2 0  9991
2 51062  97.3704 273.4234 0008005 236.1693 123.8815 15.82137259139244
Tevel-4
1 51063U 22002CH  24195.72174779  .00363547  00000-0  18379-2 0  9994
2 51063  97.3712 273.1281 0007771 234.2604 125.7942 15.80581246139219
Tevel-2
1 51069U 22002CP  24195.75492755  .00392268  00000-0  18526-2 0  9996
2 51069  97.3684 273.2157 0007655 236.6012 123.4525 15.81997914139234
OreSat0
1 52017U 22026K   24195.77274153  .00099984  00000-0  13141-2 0  9995
2 52017  97.4922 211.3437 0014387 121.7442 238.5217 15.58040000129840
Planetum 1
1 52738U 22057G   24195.60112894  .00049047  00000-0  10774-2 0  9998
2 52738  97.5678 322.7465 0004236  65.6359 294.5330 15.43863493118649
Foresail-1
1 52766U 22057AL  24195.63387942  .00022887  00000-0  71496-3 0  9992
2 52766  97.5847 321.7890 0009399  43.7529 316.4456 15.33145969118508
SNUGLITE 2
1 52899U 22065F   24195.83558871  .00002176  00000-0  45334-3 0  9992
2 52899  98.1230 336.4705 0008876  73.8672 286.3505 14.60944426108152
IO-117
1 53106U 22080B   24192.31461556 -.00000003  00000-0  00000-0 0  9990
2 53106  70.1322 184.4864 0007578 102.1342 258.0167  6.42557683 46754
SelfieSat
1 53951U 22057BC  24195.59742152  .00134806  00000-0  15418-2 0  9998
2 53951  97.5680 327.2434 0001529  19.9634 340.1682 15.61705966118903
FO-118
1 54684U 22167C   24195.86714456  .00035124  00000-0  11419-2 0  9990
2 54684  97.6079 341.3609 0009667  56.5082 303.7081 15.31774583 88380
SSS-2B
1 56184U 23054G   24195.88858004  .00045164  00000-0  10185-2 0  9997
2 56184  97.3651  94.1400 0009350  85.5283 274.7032 15.43063883 70253
CIRBE
1 56188U 23054L   24195.29658044  .00082363  00000-0  11414-2 0  9996
2 56188  97.3572  95.9383 0007234  90.7404 269.4680 15.56771195 70346
INSPIRE-Sat 7
1 56211U 23054AK  24195.24646973  .00110192  00000-0  13661-2 0  9994
2 56211  97.3580  97.2495 0008613  69.7586 290.4595 15.59636999 70412
RoseyCubesat 1
1 56212U 23054AL  24195.86052099  .00162358  00000-0  15542-2 0  9994
2 56212  97.3591  98.9096 0008213  74.9299 285.2869 15.66128985 70577
SO-120
1 56992U 23084BU  24195.56233872  .00032980  00000-0  11402-2 0  9997
2 56992  97.5331 315.2401 0011068 288.0979  71.9055 15.29784216 60217
